Wichita Falls, TX

10:03 AM CST on February 21, 2018 (GMT -0600)
Sheppard Air Force Base-Wichita Falls Municipal

Weather History for KSPS - June, 2013

Change the Weather History Date:

Wednesday, June 19, 2013

  Actual Average Record
Temperature  
Mean Temperature 76 °F 80 °F  
Max Temperature 84 °F 92 °F 108 °F (2011)
Min Temperature 68 °F 69 °F 59 °F (1976)
Degree Days  
Heating Degree Days 0 0  
Month to date heating degree days 0  
Since 1 June heating degree days 0  
Since 1 July heating degree days 2968  
Cooling Degree Days 11 15  
Month to date cooling degree days 274 252  
Year to date cooling degree days 644 571  
Since 1 June cooling degree days 252  
Growing Degree Days 26 (Base 50)    
Moisture  
Dew Point 69 °F    
Average Humidity 74    
Maximum Humidity 97    
Minimum Humidity 51    
Precipitation  
Precipitation 0.00 in 0.13 in 1.95 in (1919)
Month to date precipitation 2.73 3.03  
Year to date precipitation 10.00 14.52  
Sea Level Pressure  
Sea Level Pressure 29.92 in    
Wind  
Wind Speed 9 mph (SE)    
Max Wind Speed 35 mph    
Max Gust Speed 41 mph    
Visibility 9 miles    
Events      
T = Trace of Precipitation, MM = Missing Value Source: NWS Daily Summary

Daily Weather History Graph

Daily Weather History Graph

Search for Another Location

Airport or City:

Trip Planner

Search our weather history database for the weather conditions in past years. The results will help you decide how hot, cold, wet, or windy it might be!

Date:

Astronomy

Jun. 19, 2013 Rise Set
Actual Time 6:22 AM CDT 8:48 PM CDT
Civil Twilight 5:53 AM CDT 9:17 PM CDT
Nautical Twilight 5:17 AM CDT 9:53 PM CDT
Astronomical Twilight 4:38 AM CDT 10:32 PM CDT
Moon 4:49 PM CDT (6/19) 2:59 AM CDT (6/19)
Length of Visible Light 15h 23m
Length of Day
14h 25m
Waxing Gibbous, 80% of the Moon is Illuminated
Jun 19
Waxing Gibbous
Jun 23
Full
Jun 29
Last Quarter
Jul 8
New
Jul 15
First Quarter

Hourly Weather History & Observations

Time (CDT) Temp. Heat Index Dew Point Humidity Pressure Visibility Wind Dir Wind Speed Gust Speed Precip Events Conditions
12:52 AM 73.0 °F - 68.0 °F 84% 29.94 in 10.0 mi SE 9.2 mph - N/A   Clear
1:52 AM 71.1 °F - 68.0 °F 90% 29.94 in 10.0 mi SE 6.9 mph - N/A   Clear
2:52 AM 71.1 °F - 68.0 °F 90% 29.92 in 10.0 mi SE 8.1 mph - N/A   Clear
3:52 AM 70.0 °F - 68.0 °F 93% 29.92 in 10.0 mi SE 4.6 mph - N/A   Clear
4:52 AM 68.0 °F - 66.9 °F 96% 29.92 in 9.0 mi SE 4.6 mph - N/A   Partly Cloudy
5:52 AM 69.1 °F - 66.9 °F 93% 29.93 in 8.0 mi East 3.5 mph - N/A   Partly Cloudy
6:52 AM 69.1 °F - 68.0 °F 96% 29.93 in 6.0 mi SE 4.6 mph - N/A   Scattered Clouds
7:52 AM 71.1 °F - 69.1 °F 93% 29.95 in 6.0 mi SE 5.8 mph - N/A   Scattered Clouds
8:12 AM 71.6 °F - 69.8 °F 94% 29.99 in 7.0 mi ESE 5.8 mph - N/A   Scattered Clouds
8:32 AM 71.6 °F - 69.8 °F 94% 29.99 in 7.0 mi ESE 9.2 mph - N/A   Mostly Cloudy
8:44 AM 73.4 °F - 69.8 °F 88% 30.00 in 7.0 mi East 9.2 mph - N/A   Mostly Cloudy
8:52 AM 73.9 °F - 70.0 °F 87% 29.96 in 8.0 mi East 10.4 mph - N/A   Mostly Cloudy
9:10 AM 75.2 °F - 69.8 °F 83% 30.01 in 8.0 mi East 8.1 mph - N/A   Mostly Cloudy
9:42 AM 75.2 °F - 69.8 °F 83% 30.02 in 9.0 mi ENE 8.1 mph - N/A   Mostly Cloudy
9:52 AM 75.9 °F - 70.0 °F 82% 29.98 in 9.0 mi ENE 8.1 mph - N/A   Mostly Cloudy
10:52 AM 79.0 °F - 70.0 °F 74% 29.97 in 10.0 mi East 4.6 mph - N/A   Mostly Cloudy
11:52 AM 82.0 °F 85.9 °F 70.0 °F 67% 29.97 in 10.0 mi East 5.8 mph - N/A   Mostly Cloudy
12:52 PM 82.9 °F 87.5 °F 71.1 °F 67% 29.93 in 10.0 mi South 15.0 mph - N/A   Mostly Cloudy
1:52 PM 82.0 °F 86.3 °F 71.1 °F 69% 29.98 in 10.0 mi West 17.3 mph - N/A   Overcast
2:52 PM 80.1 °F 81.9 °F 64.9 °F 60% 29.91 in 10.0 mi WSW 16.1 mph - N/A   Overcast
3:52 PM 81.0 °F 81.6 °F 60.1 °F 49% 29.77 in 10.0 mi SSW 24.2 mph 40.3 mph N/A   Mostly Cloudy
4:52 PM 81.0 °F 82.2 °F 63.0 °F 54% 29.85 in 10.0 mi ENE 12.7 mph 24.2 mph N/A   Mostly Cloudy
5:52 PM 82.9 °F 85.8 °F 68.0 °F 60% 29.85 in 10.0 mi ESE 9.2 mph - N/A   Mostly Cloudy
6:52 PM 82.9 °F 88.0 °F 72.0 °F 69% 29.83 in 10.0 mi ESE 10.4 mph - N/A   Mostly Cloudy
7:52 PM 81.0 °F 84.4 °F 70.0 °F 69% 29.85 in 10.0 mi SSE 9.2 mph - N/A   Mostly Cloudy
8:52 PM 78.1 °F - 69.1 °F 74% 29.87 in 10.0 mi SE 4.6 mph - N/A   Mostly Cloudy
9:52 PM 73.9 °F - 70.0 °F 87% 29.89 in 10.0 mi SSE 6.9 mph - N/A   Scattered Clouds
10:52 PM 75.0 °F - 70.0 °F 84% 29.90 in 10.0 mi SE 8.1 mph - N/A   Mostly Cloudy
11:52 PM 73.9 °F - 70.0 °F 87% 29.90 in 10.0 mi SSE 9.2 mph - N/A   Mostly Cloudy